GZP7701 UUDD-USDB

Flight info

Callsign GZP7701
Flight time N/A
Altitude 35000
Route RILPO T753 NULGA DCT UNTOR DCT UNKOR
Aircraft B77L/M-VGDW/C

Departure

Time 2026-05-06 08:12
Airport Domodedovo International Airport (UUDD)

Arrival

Time N/A
Airport Bovanenkovo Airport (USDB)
Time Latitude Longitude Altitude Speed Heading
2026-05-06 07:56 55.41182 37.90777 571 ft 0 kts 326°
2026-05-06 08:04 55.41206 37.90743 579 ft 6 kts 315°
2026-05-06 08:04 55.41201 37.90641 580 ft 10 kts 243°
2026-05-06 08:05 55.41160 37.90532 576 ft 11 kts 235°
2026-05-06 08:05 55.41093 37.90420 579 ft 22 kts 212°
2026-05-06 08:05 55.40987 37.90182 575 ft 20 kts 238°
2026-05-06 08:05 55.40951 37.89997 575 ft 16 kts 243°
2026-05-06 08:06 55.40875 37.89798 575 ft 24 kts 236°
2026-05-06 08:06 55.40777 37.89601 575 ft 20 kts 214°
2026-05-06 08:06 55.40692 37.89415 575 ft 17 kts 234°
2026-05-06 08:06 55.40587 37.89410 572 ft 17 kts 147°
2026-05-06 08:07 55.40470 37.89549 575 ft 25 kts 146°
2026-05-06 08:07 55.40324 37.89724 575 ft 25 kts 144°
2026-05-06 08:07 55.40181 37.89898 572 ft 24 kts 146°
2026-05-06 08:07 55.40038 37.90062 564 ft 26 kts 147°
2026-05-06 08:08 55.39889 37.90252 563 ft 27 kts 148°
2026-05-06 08:08 55.39735 37.90432 551 ft 27 kts 143°
2026-05-06 08:08 55.39631 37.90535 550 ft 8 kts 174°
2026-05-06 08:08 55.39600 37.90511 550 ft 0 kts 223°
2026-05-06 08:09 55.39599 37.90510 550 ft 0 kts 223°
2026-05-06 08:09 55.39598 37.90508 550 ft 1 kts 224°
2026-05-06 08:10 55.39594 37.90500 550 ft 1 kts 225°
2026-05-06 08:10 55.39586 37.90486 550 ft 2 kts 228°
2026-05-06 08:10 55.39556 37.90408 548 ft 14 kts 245°
2026-05-06 08:10 55.39573 37.90268 551 ft 9 kts 318°
2026-05-06 08:11 55.39577 37.90262 549 ft 0 kts 321°
2026-05-06 08:12 55.39642 37.90175 548 ft 43 kts 324°
2026-05-06 08:12 55.40206 37.89490 572 ft 151 kts 325°
2026-05-06 08:12 55.41216 37.88276 1222 ft 192 kts 324°
2026-05-06 08:12 55.42389 37.86916 2241 ft 210 kts 323°
2026-05-06 08:13 55.43574 37.85457 3771 ft 209 kts 318°
2026-05-06 08:13 55.44685 37.83583 4923 ft 224 kts 310°
2026-05-06 08:13 55.45690 37.81603 5846 ft 224 kts 305°
2026-05-06 08:13 55.46695 37.79403 5533 ft 231 kts 305°
2026-05-06 08:14 55.47564 37.77108 5260 ft 221 kts 298°
2026-05-06 08:14 55.48719 37.75289 5076 ft 238 kts 335°
2026-05-06 08:14 55.50361 37.74615 4995 ft 245 kts 341°
2026-05-06 08:14 55.52037 37.73888 4895 ft 250 kts 347°
2026-05-06 08:15 55.53769 37.74397 4837 ft 267 kts 25°
2026-05-06 08:15 55.55313 37.76440 4837 ft 284 kts 33°
2026-05-06 08:15 55.56940 37.78412 4835 ft 284 kts 28°
2026-05-06 08:15 55.58637 37.80233 4800 ft 284 kts 26°
2026-05-06 08:16 55.60344 37.82000 4826 ft 286 kts 26°
2026-05-06 08:16 55.62064 37.83775 4808 ft 285 kts 26°
2026-05-06 08:16 55.63612 37.85943 4779 ft 290 kts 50°
2026-05-06 08:16 55.64415 37.89214 4829 ft 297 kts 82°
2026-05-06 08:17 55.64286 37.92828 4826 ft 291 kts 104°
2026-05-06 08:17 55.63823 37.96340 4813 ft 295 kts 104°
2026-05-06 08:17 55.63361 37.99873 4822 ft 295 kts 104°
2026-05-06 08:17 55.62898 38.03414 4800 ft 294 kts 104°
2026-05-06 08:18 55.62446 38.06895 4828 ft 296 kts 104°
2026-05-06 08:18 55.61985 38.10463 4781 ft 295 kts 104°
2026-05-06 08:18 55.61534 38.13978 4806 ft 292 kts 104°
2026-05-06 08:18 55.61086 38.17481 4806 ft 293 kts 104°
2026-05-06 08:19 55.60638 38.21014 4806 ft 294 kts 104°
2026-05-06 08:19 55.60191 38.24532 4799 ft 293 kts 104°
2026-05-06 08:19 55.59741 38.28055 4823 ft 294 kts 104°
2026-05-06 08:19 55.59289 38.31591 4765 ft 294 kts 104°
2026-05-06 08:20 55.58840 38.35101 4866 ft 293 kts 104°
2026-05-06 08:20 55.58390 38.38624 5707 ft 294 kts 102°
2026-05-06 08:20 55.58384 38.42273 6618 ft 304 kts 74°
2026-05-06 08:20 55.59346 38.45554 7639 ft 302 kts 44°
2026-05-06 08:21 55.61029 38.47697 8612 ft 298 kts 19°
2026-05-06 08:21 55.62986 38.49033 9420 ft 306 kts 15°
2026-05-06 08:21 55.64980 38.50299 10284 ft 314 kts 15°
2026-05-06 08:21 55.67092 38.51652 10937 ft 328 kts 15°
2026-05-06 08:22 55.69266 38.53080 11748 ft 338 kts 16°
2026-05-06 08:22 55.71498 38.54491 12527 ft 339 kts
2026-05-06 08:22 55.73803 38.54777 12859 ft 330 kts 346°
2026-05-06 08:22 55.75904 38.53399 12848 ft 318 kts 322°
2026-05-06 08:23 55.77578 38.50929 12835 ft 309 kts 306°
2026-05-06 08:23 55.78874 38.47930 12848 ft 305 kts 300°
2026-05-06 08:23 55.80066 38.44811 12836 ft 304 kts 299°
2026-05-06 08:23 55.81258 38.41705 12837 ft 304 kts 300°
2026-05-06 08:24 55.82460 38.38617 12837 ft 303 kts 300°
2026-05-06 08:24 55.83692 38.35568 12837 ft 304 kts 302°
2026-05-06 08:24 55.84984 38.32590 12840 ft 304 kts 303°
2026-05-06 08:24 55.86287 38.29628 12850 ft 304 kts 303°
2026-05-06 08:25 55.87594 38.26653 12843 ft 304 kts 303°
2026-05-06 08:25 55.88876 38.23719 12840 ft 305 kts 303°
2026-05-06 08:25 55.90177 38.20729 12835 ft 305 kts 303°
2026-05-06 08:25 55.91472 38.17740 12840 ft 304 kts 302°
2026-05-06 08:26 55.92763 38.14754 12839 ft 304 kts 302°
2026-05-06 08:26 55.94053 38.11762 12835 ft 304 kts 302°
2026-05-06 08:26 55.95343 38.08769 12841 ft 304 kts 302°
2026-05-06 08:26 55.96632 38.05776 12843 ft 304 kts 302°
2026-05-06 08:27 55.97918 38.02784 12841 ft 304 kts 302°
2026-05-06 08:27 55.99202 37.99791 12846 ft 303 kts 302°
2026-05-06 08:27 56.00629 37.97045 12846 ft 306 kts 317°
2026-05-06 08:27 56.02552 37.95239 13272 ft 320 kts 332°
2026-05-06 08:28 56.04645 37.93801 13786 ft 323 kts 333°
2026-05-06 08:28 56.06758 37.92340 13846 ft 329 kts 332°
2026-05-06 08:28 56.08890 37.90845 13855 ft 329 kts 332°
2026-05-06 08:28 56.11011 37.89344 13847 ft 326 kts 332°
2026-05-06 08:29 56.13118 37.87858 13850 ft 323 kts 334°
2026-05-06 08:29 56.15347 37.87071 13850 ft 338 kts 355°
2026-05-06 08:29 56.17779 37.87377 14069 ft 364 kts 359°
2026-05-06 08:29 56.20389 37.87801 14413 ft 386 kts 360°
2026-05-06 08:30 56.23090 37.88241 15128 ft 395 kts
2026-05-06 08:30 56.25850 37.88675 15999 ft 400 kts 360°
2026-05-06 08:30 56.28637 37.89095 16939 ft 403 kts 360°
2026-05-06 08:30 56.31408 37.89500 17868 ft 407 kts 360°
2026-05-06 08:31 56.34246 37.89906 18665 ft 412 kts 359°
2026-05-06 08:31 56.37121 37.90314 19398 ft 416 kts 359°
2026-05-06 08:31 56.40029 37.90726 20155 ft 421 kts 359°
2026-05-06 08:31 56.42968 37.91130 20882 ft 426 kts 359°
2026-05-06 08:32 56.45941 37.91529 21577 ft 432 kts 359°
2026-05-06 08:32 56.48958 37.91934 22279 ft 437 kts 359°
2026-05-06 08:32 56.52010 37.92347 22994 ft 442 kts 359°
2026-05-06 08:32 56.55099 37.92766 23661 ft 447 kts 359°
2026-05-06 08:33 56.58211 37.93192 24265 ft 451 kts 359°
2026-05-06 08:33 56.61350 37.93622 24868 ft 455 kts 359°
2026-05-06 08:33 56.64514 37.94057 25467 ft 459 kts 359°
2026-05-06 08:33 56.67680 37.94870 25919 ft 469 kts 12°
2026-05-06 08:34 56.70709 37.97346 26351 ft 486 kts 30°
2026-05-06 08:34 56.75671 38.05926 27368 ft 498 kts 43°
2026-05-06 08:34 56.78094 38.10494 27888 ft 503 kts 43°
2026-05-06 08:35 56.80558 38.15043 28446 ft 506 kts 42°
2026-05-06 08:35 56.83038 38.19534 28991 ft 510 kts 42°
2026-05-06 08:35 56.85608 38.24151 29527 ft 513 kts 42°
2026-05-06 08:35 56.88183 38.28718 29973 ft 517 kts 40°
2026-05-06 08:36 56.90827 38.33049 30432 ft 518 kts 38°
2026-05-06 08:36 56.93568 38.37308 31001 ft 516 kts 37°
2026-05-06 08:36 56.96317 38.41502 31655 ft 513 kts 37°
2026-05-06 08:36 56.99053 38.45685 32264 ft 511 kts 37°
2026-05-06 08:37 57.01772 38.49884 32820 ft 510 kts 37°
2026-05-06 08:37 57.04474 38.54102 33355 ft 510 kts 38°
2026-05-06 08:37 57.07163 38.58337 33896 ft 509 kts 38°
2026-05-06 08:37 57.09843 38.62582 34329 ft 508 kts 38°
2026-05-06 08:38 57.12519 38.66835 34739 ft 508 kts 38°
2026-05-06 08:38 57.15203 38.71107 34852 ft 512 kts 38°
2026-05-06 08:38 57.17894 38.75398 34847 ft 511 kts 38°
2026-05-06 08:39 57.23251 38.83960 34846 ft 508 kts 38°
2026-05-06 08:39 57.28592 38.92527 34846 ft 508 kts 38°
2026-05-06 08:40 57.33890 39.01056 34841 ft 508 kts 39°
2026-05-06 08:40 57.39256 39.09731 34840 ft 509 kts 39°
2026-05-06 08:41 57.44592 39.18394 34840 ft 510 kts 39°
2026-05-06 08:41 57.49936 39.27098 34839 ft 511 kts 39°
2026-05-06 08:42 57.55261 39.35775 34837 ft 512 kts 39°
2026-05-06 08:42 57.60626 39.44543 34830 ft 513 kts 39°
2026-05-06 08:43 57.65991 39.53352 34835 ft 514 kts 39°
2026-05-06 08:43 57.71356 39.62199 34822 ft 515 kts 39°
2026-05-06 08:44 57.76722 39.71087 34831 ft 515 kts 39°
2026-05-06 08:44 57.82080 39.79996 34831 ft 515 kts 39°
2026-05-06 08:45 57.87437 39.88937 34822 ft 515 kts 39°
2026-05-06 08:45 57.92776 39.97944 34821 ft 516 kts 39°
2026-05-06 08:46 57.98070 40.06947 34817 ft 516 kts 39°
2026-05-06 08:46 58.03393 40.16027 34817 ft 516 kts 40°
2026-05-06 08:47 58.08717 40.25142 34815 ft 516 kts 40°
2026-05-06 08:47 58.14040 40.34289 34810 ft 517 kts 40°
2026-05-06 08:48 58.18461 40.41905 34814 ft 517 kts 39°
2026-05-06 08:48 58.23804 40.51046 34807 ft 517 kts 39°
2026-05-06 08:49 58.29153 40.60205 34805 ft 517 kts 39°
2026-05-06 08:49 58.34495 40.69404 34800 ft 518 kts 39°
2026-05-06 08:50 58.39827 40.78635 34801 ft 518 kts 39°
2026-05-06 08:50 58.45158 40.87908 34797 ft 519 kts 39°
2026-05-06 08:51 58.50485 40.97211 34796 ft 519 kts 39°
2026-05-06 08:51 58.55810 41.06551 34790 ft 519 kts 39°
2026-05-06 08:52 58.61127 41.15916 34790 ft 519 kts 40°
2026-05-06 08:52 58.66436 41.25308 34790 ft 519 kts 40°
2026-05-06 08:53 58.71708 41.34673 34785 ft 519 kts 40°
2026-05-06 08:53 58.77031 41.44080 34786 ft 518 kts 37°
2026-05-06 08:54 58.82739 41.52492 34783 ft 515 kts 32°
2026-05-06 08:54 58.88548 41.60600 34776 ft 516 kts 32°
2026-05-06 08:55 58.94357 41.68807 34777 ft 516 kts 32°
2026-05-06 08:55 59.00136 41.77097 34775 ft 517 kts 32°
2026-05-06 08:56 59.05904 41.85430 34774 ft 517 kts 32°
2026-05-06 08:56 59.11666 41.93785 34769 ft 517 kts 32°
2026-05-06 08:57 59.17423 42.02164 34762 ft 516 kts 33°
2026-05-06 08:57 59.23131 42.10507 34763 ft 516 kts 33°
2026-05-06 08:58 59.28872 42.18933 34756 ft 516 kts 33°
2026-05-06 08:58 59.34608 42.27387 34750 ft 515 kts 33°
2026-05-06 08:59 59.40443 42.35442 34756 ft 510 kts 26°
2026-05-06 08:59 59.46600 42.42313 34738 ft 508 kts 24°
2026-05-06 09:00 59.52782 42.49054 34753 ft 508 kts 24°
2026-05-06 09:00 59.58912 42.55850 34736 ft 508 kts 24°
2026-05-06 09:01 59.65044 42.62749 34743 ft 507 kts 25°
2026-05-06 09:01 59.71162 42.69679 34737 ft 507 kts 25°
2026-05-06 09:02 59.77279 42.76634 34729 ft 506 kts 25°
2026-05-06 09:02 59.83375 42.83590 34730 ft 505 kts 25°
2026-05-06 09:03 59.89477 42.90580 34731 ft 505 kts 25°
2026-05-06 09:03 59.95563 42.97583 34739 ft 505 kts 25°
2026-05-06 09:04 60.01647 43.04611 34736 ft 506 kts 25°
2026-05-06 09:04 60.07702 43.11638 34726 ft 506 kts 25°
2026-05-06 09:05 60.13794 43.18740 34721 ft 506 kts 25°
2026-05-06 09:05 60.19868 43.25852 34729 ft 506 kts 25°
2026-05-06 09:06 60.25940 43.32990 34725 ft 506 kts 25°
2026-05-06 09:06 60.32011 43.40157 34730 ft 506 kts 25°
2026-05-06 09:07 60.38092 43.47370 34727 ft 506 kts 25°
2026-05-06 09:07 60.44164 43.54603 34719 ft 507 kts 25°
2026-05-06 09:08 60.50236 43.61866 34728 ft 507 kts 25°
2026-05-06 09:08 60.56322 43.69182 34728 ft 508 kts 26°
2026-05-06 09:09 60.62405 43.76524 34732 ft 509 kts 26°
2026-05-06 09:09 60.68472 43.83839 34733 ft 509 kts 25°
2026-05-06 09:10 60.74664 43.91074 34737 ft 510 kts 24°
2026-05-06 09:10 60.80838 43.98282 34740 ft 511 kts 25°
2026-05-06 09:11 60.86956 44.05504 34732 ft 511 kts 25°
2026-05-06 09:11 60.93116 44.12816 34733 ft 512 kts 25°
2026-05-06 09:12 60.99279 44.20155 34741 ft 512 kts 25°
2026-05-06 09:12 61.05457 44.27535 34734 ft 513 kts 25°
2026-05-06 09:13 61.11627 44.34939 34738 ft 513 kts 25°
2026-05-06 09:13 61.17809 44.42395 34739 ft 514 kts 25°
2026-05-06 09:14 61.23987 44.49879 34746 ft 515 kts 25°
2026-05-06 09:14 61.30168 44.57403 34744 ft 515 kts 25°
2026-05-06 09:15 61.36348 44.64961 34745 ft 515 kts 25°
2026-05-06 09:15 61.42538 44.72563 34746 ft 516 kts 25°
2026-05-06 09:16 61.48716 44.80188 34750 ft 516 kts 25°
2026-05-06 09:16 61.54891 44.87847 34748 ft 516 kts 25°
2026-05-06 09:17 61.61074 44.95549 34750 ft 516 kts 25°
2026-05-06 09:17 61.67243 45.03270 34751 ft 516 kts 25°
2026-05-06 09:18 61.73422 45.10960 34746 ft 515 kts 25°
2026-05-06 09:18 61.79643 45.18460 34750 ft 515 kts 24°
2026-05-06 09:19 61.85838 45.25918 34759 ft 515 kts 24°
2026-05-06 09:19 61.92054 45.33478 34764 ft 515 kts 24°
2026-05-06 09:20 61.98276 45.41107 34759 ft 516 kts 25°
2026-05-06 09:20 62.04487 45.48763 34762 ft 516 kts 25°
2026-05-06 09:21 62.10704 45.56460 34759 ft 517 kts 25°
2026-05-06 09:21 62.16918 45.64188 34757 ft 517 kts 25°
2026-05-06 09:22 62.23140 45.71964 34750 ft 517 kts 25°
2026-05-06 09:22 62.29346 45.79758 34753 ft 517 kts 25°
2026-05-06 09:23 62.35552 45.87588 34748 ft 517 kts 25°
2026-05-06 09:23 62.41767 45.95469 34751 ft 518 kts 25°
2026-05-06 09:24 62.47929 46.03322 34757 ft 518 kts 25°
2026-05-06 09:24 62.54144 46.11278 34741 ft 518 kts 25°
2026-05-06 09:25 62.60347 46.19269 34738 ft 519 kts 25°